This is the latest recevied weather packets stored in our database for station/object W5ALL-WX. If no packets are shown the sender has not sent any weather packets the latest 10 day(s).
| Time | Temp. | Humidity | Pressure | Rain* | Wind** | Luminosity | Snow |
|---|---|---|---|---|---|---|---|
| 1777557778 | 19.44° C | 21% | 1012.6 hPa | 0 mm | - | - | - |
| 1777557478 | 18.89° C | 19% | 1012.4 hPa | 0 mm | - | - | - |
| 1777556878 | 18.33° C | 23% | 1012.6 hPa | 0 mm | - | - | - |
| 1777551777 | 17.22° C | 16% | 1012.4 hPa | 0 mm | - | - | - |
| 1777550877 | 17.22° C | 15% | 1012.4 hPa | 0 mm | - | - | - |
| 1777547577 | 20° C | 11% | 1012.5 hPa | 0 mm | - | - | - |
| 1777546261 | 20.56° C | 10% | 1012.4 hPa | 0 mm | - | - | - |
| 1777545361 | 21.11° C | 9% | 1012.5 hPa | 0 mm | - | - | - |
| 1777545061 | 21.11° C | 9% | 1012.4 hPa | 0 mm | - | - | - |
| 1777544761 | 20.56° C | 9% | 1012.5 hPa | 0 mm | - | - | - |
| 1777544461 | 20.56° C | 9% | 1012.7 hPa | 0 mm | - | - | - |
| 1777544161 | 21.11° C | 9% | 1012.8 hPa | 0 mm | - | - | - |
| 1777543861 | 21.11° C | 9% | 1012.8 hPa | 0 mm | - | - | - |
| 1777543561 | 21.11° C | 9% | 1012.8 hPa | 0 mm | - | - | - |
| 1777543261 | 21.11° C | 8% | 1012.8 hPa | 0 mm | - | - | - |
| 1777542961 | 21.11° C | 8% | 1012.7 hPa | 0 mm | - | - | - |
| 1777542661 | 21.11° C | 9% | 1012.6 hPa | 0 mm | - | - | - |
| 1777542361 | 21.11° C | 9% | 1012.7 hPa | 0 mm | - | - | - |
| 1777542061 | 21.67° C | 8% | 1012.8 hPa | 0 mm | - | - | - |
| 1777541761 | 21.67° C | 8% | 1012.7 hPa | 0 mm | - | - | - |
| 1777541461 | 21.67° C | 8% | 1012.6 hPa | 0 mm | - | - | - |
| 1777541161 | 21.67° C | 8% | 1012.7 hPa | 0 mm | - | - | - |
| 1777540861 | 21.67° C | 8% | 1012.7 hPa | 0 mm | - | - | - |
| 1777540561 | 21.67° C | 8% | 1012.6 hPa | 0 mm | - | - | - |
| 1777540261 | 21.11° C | 8% | 1012.5 hPa | 0 mm | - | - | - |
* Rain latest hour (hover to see other rain measurements)
** Current wind speed in m/s (hover to see current wind gust speed)